www.pogodaiklimat.ru

Погода и климат >> Архив погоды >> Россия >> Кемеровская область >> Кемерово АМС


ПОГОДА в Кемерово АМС

  • Прогноз погоды в Кемерово АМС
  • Монитор погоды в Кемерово АМС

АРХИВ ПОГОДЫ в Кемерово АМС

Время (UTC), дата Ветер
(напр.,м/с)
 
Видим.   Явления Облачность Т
(С)
Тd
(С)
f
(%)
Тe
(С)
Тes
(С)
Комфортность P
(гПа)
Po
(гПа)
Тmin
(С)
Tmax
(С)
R
(мм)
R24
(мм)
S
(см)
03 18.06 ЮВ 4 н/о н/о +17.2 +9.7 61 +17 +17 1006.7 978.7
06 18.06 Ю 5 н/о н/о +21.2 +6.4 38 +22 +22 комфорт 1003.3 975.7
09 18.06 Ю 2 н/о н/о +20.5 -20.6 5 +20 +20 1002.6 974.9
12 18.06 С 2 н/о н/о +14.4 +12.7 90 +14 +14 1002.2 974.1 +21.4
15 18.06 В 2 н/о н/о +13.6 +13.0 96 +13 +13 1001.3 973.1
18 18.06 Ю 3 н/о н/о +13.5 +12.5 94 +12 +12 1000.9 972.7
21 18.06 Ю 4 н/о н/о +13.1 +12.5 96 +11 +11 1000.1 971.9
00 19.06 ЮЗ 5 н/о н/о +13.0 +10.7 86 +11 +11 1002.6 974.3 +12.9
03 19.06 ЮЗ 6
{11}
н/о н/о +12.9 +10.5 85 +10 +10 1004.6 976.3
06 19.06 ЮЗ 6
{12}
н/о н/о +16.1 +8.5 61 +15 +15 1006.6 978.5
09 19.06 ЮЗ 4
{12}
н/о н/о +17.3 +8.0 54 +17 +17 1008.3 980.3
12 19.06 ЮЗ 3
{12}
н/о н/о +17.4 +7.2 51 +17 +17 1009.4 981.3 +17.9
15 19.06 Ю 2 н/о н/о +14.8 +6.7 58 +15 +15 1010.9 982.6
18 19.06 Ю 2 н/о н/о +12.2 +7.7 74 +11 +11 1011.8 983.1
21 19.06 Ю 2 н/о н/о +10.7 +8.2 85 +9 +9 1012.2 983.4
00 20.06 ЮВ 1 н/о н/о +11.6 +9.0 84 +11 +11 1013.5 984.8 +9.0
03 20.06 Ю 2 н/о н/о +16.0 +10.8 71 +16 +16 1013.7 985.4
06 20.06 Ю 2 н/о н/о +19.5 +11.0 58 +21 +21 комфорт 1013.2 985.3
09 20.06 С 2 н/о н/о +20.1 -4.3 19 +20 +20 1012.8 984.8
12 20.06 Ю 1 н/о н/о +18.8 +12.2 65 +21 +21 комфорт 1013.3 985.3 +20.5
15 20.06 Ю 2 н/о н/о +14.3 +11.5 83 +14 +14 1014.2 985.7
18 20.06 СВ 1 н/о н/о +11.2 +10.2 94 +11 +11 1014.8 986.0
21 20.06 ЮВ 1 н/о н/о +9.2 +8.7 97 +8 +8 1015.0 986.0
00 21.06 штиль 0 н/о н/о +14.7 +12.2 85 +14 +14 1015.0 986.5 +9.2
03 21.06 Ю 1 н/о н/о +19.4 +7.8 47 +21 +21 комфорт 1014.4 986.4
06 21.06 З 2 н/о н/о +21.9 -7.8 13 +20 +20 1013.4 985.5
09 21.06 С 2 н/о н/о +23.3 -21.2 4 +20 +20 1011.9 984.2
12 21.06 З 2 н/о н/о +23.2 -21.2 4 +20 +20 1011.0 983.3 +23.6
15 21.06 СЗ 1 н/о н/о +18.1 +9.0 55 +19 +19 1010.5 982.4
18 21.06 С 3 н/о н/о +15.4 +9.0 66 +15 +15 1009.7 981.4
21 21.06 СВ 1 н/о н/о +13.1 +9.5 79 +13 +13 1008.6 980.1
00 22.06 В 1 н/о н/о +15.2 +10.8 75 +16 +16 1007.8 979.6 +11.8
03 22.06 Ю 2 н/о н/о +19.0 +13.5 70 +21 +21 комфорт 1007.0 979.1
06 22.06 ЮЗ 3 н/о н/о +23.6 -20.8 4 +20 +20 1005.8 978.3
09 22.06 ЮЗ 3 н/о н/о +24.9 +8.5 35 +25 +25 комфорт 1004.2 976.9
12 22.06 ЮВ 4 н/о н/о +21.7 +13.7 60 +24 +24 комфорт 1004.4 976.9 +25.3
15 22.06 Ю 2
{15}
н/о н/о +16.2 +12.0 76 +16 +16 1005.6 977.5
18 22.06 В 2
{15}
н/о н/о +13.8 +13.0 95 +13 +13 1004.4 976.1
21 22.06 Ю 2 н/о н/о +13.3 +12.5 95 +12 +12 1004.9 976.6
00 23.06 Ю 2 н/о н/о +14.5 +13.7 95 +14 +14 1005.3 977.1 +12.8
03 23.06 ЮЗ 2 н/о н/о +18.1 +15.0 82 +19 +19 1005.1 977.3
06 23.06 Ю 1 н/о н/о +20.1 -20.7 5 +20 +20 1004.7 976.9
09 23.06 З 1 н/о н/о +15.4 +14.2 93 +16 +16 1005.6 977.5
12 23.06 ЮЗ 1 н/о н/о +13.2 +12.0 92 +13 +13 1007.3 978.9 +20.6
15 23.06 Ю 2 н/о н/о +12.7 +12.0 96 +12 +12 1008.1 979.6
18 23.06 ЮЗ 3 н/о н/о +12.7 +11.5 92 +11 +11 1008.7 980.2
21 23.06 ЮЗ 2 н/о н/о +10.2 +9.5 95 +9 +9 1009.4 980.6
00 24.06 Ю 2 н/о н/о +10.2 +9.2 94 +9 +9 1010.3 981.5 +8.8
03 24.06 Ю 3 н/о н/о +13.7 +9.2 74 +13 +13 1010.3 981.9
06 24.06 Ю 4 н/о н/о +15.3 +6.2 55 +14 +14 1010.3 981.9
09 24.06 Ю 4 н/о н/о +15.4 +6.7 56 +15 +15 1010.1 981.8
12 24.06 Ю 4 н/о н/о +15.2 +6.2 55 +14 +14 1010.1 981.8 +16.4

 

Местоположение метеостанции Кемерово АМС (Кемеровская область, Россия): широта 55.40 долгота 86.20 высота над уровнем моря 242 м.

В архиве по умолчанию представлена погода в Кемерово АМС за последнюю неделю. Архивные данные за месяц целиком и за предыдущие месяцы, начиная с января 2011 года, Вы можете получить, выбрав интересующий диапазон дат из раскрывающегося списка и нажав кнопку "Ввод!".


*Определитесь, кто Вы:
робот инопланетянин человек

Внимание! Время в таблицах - всемирное. Для получения местного времени необходимо прибавить поправку, которая равна 7 ч.

Смотрите также архив погоды в соседних городах и на ближайших метеорологических станциях:

Погода в Кемерово (Кемеровская область, Россия) (17 км)
Погода в Барзасе (Кемеровская область, Россия) (34 км)
Погода в Топках (Кемеровская область, Россия) (41 км)
Погода в Крапивино (Кемеровская область, Россия) (59 км)
Погода в Промышленной (Кемеровская область, Россия) (67 км)
Погода в Ленинск-Кузнецком (Кемеровская область, Россия) (76 км)
Погода в Тайге (Кемеровская область, Россия) (83 км)
Погода в Яе (Кемеровская область, Россия) (91 км)
Погода в Центральном Руднике (Кемеровская область, Россия) (94 км)
Погода в Юрге (Кемеровская область, Россия) (96 км)

Пояснения к столбцам:

Ветер - указаны скорость ветра в м/с - средняя за 10 мин, порывы в срок и между сроками (в фигурных скобках) и направление, откуда дует ветер: С - северный, СВ - северо-восточный, В - восточный, ЮВ - юго-восточный, Ю - южный, ЮЗ - юго-западный, З - западный, СЗ - северо-западный.
Видимость - горизонтальная дальность видимости в метрах или километрах. При видимости от 1 до 10 км при отсутствии осадков обычно наблюдается дымка, при ухудшении видимости до 1 км и менее - туман. В сухую погоду видимость может ухудшаться дымом, пылью или мглою.
Явления - указаны атмосферные явления, наблюдавшиеся в срок или в последний час перед сроком; фигурными скобками обозначены явления, наблюдавшиеся между сроками (за 1-3 часа до срока); квадратными скобками обозначены град или гололедные отложения с указанием их диаметра в мм.
Облачность - указаны через наклонную черту общая и нижняя облачность в баллах и высота нижней границы облаков в метрах; квадратными скобками обозначены формы облаков: Ci - перистые, Cs - перисто-слоистые, Cc - перисто-кучевые, Ac - высококучевые, As - высокослоистые, Sc - слоисто-кучевые, Ns - слоисто-дождевые, Cu - кучевые, Cb - кучево-дождевые. Подробнее классификацию облаков см. в Атласе облаков (PDF).
T - Температура воздуха - температура, измеренная на высоте 2 м над землей.
Td - Температура точки росы - температура, при понижении до которой содержащийся в воздухе водяной пар достигнет насыщения.
f - Относительная влажность воздуха - влажноcть воздуха, измеренная на высоте 2 м над землей.
Te - Эффективная температура - температура, которую ощущает одетый по сезону человек в тени. Характеристика душности погоды. При расчете учитывается влияние влажности воздуха и скорости ветра на теплоощущения человека.
Tes - Эффективная температура на солнце - температура, которую ощущает человек, с поправкой на солнечный нагрев. Характеристика знойности погоды. Зависит от высоты солнца над горизонтом, облачности и скорости ветра. Ночью, в пасмурную погоду, а также при ветре 12 м/с и более поправка равна нулю.
P - Атмосферное давление - приведенное к уровню моря атмосферное давление.
Po - Атмосферное давление - измеренное на уровне метеостанции атмосферное давление.
Tmin - Минимальная температура - минимум температуры воздуха на высоте 2 м над землей.
Tmax - Максимальная температура - максимум температуры воздуха на высоте 2 м над землей.
R - Количество осадков - Количество выпавших осадков за период времени, мм. При наведении курсора мыши на число - период времени, за который выпало указанное количество осадков.
R24 - Количество осадков - Количество выпавших осадков за 24 часа, мм.
S - Снежный покров - Высота снежного покрова, см. При наведении курсора мыши на число - состояние снежного покрова и степень покрытия местности в баллах.